This demonstration page uses our WeatherBlox Daily Observations layout. Learn more.

Left ArrowRight Arrow

Hourly Observations for February 13, 2018

Temp ( °F °C ) Dew Point ( °F °C ) Humidity (%) Winds ( mph kmh ) Pressure ( in mb ) Visibility ( mi km ) Precip ( " mm )
12:54 am 00:54 Cloudy 21 -6.1 13 -10.6 71 71 ESE 13 20 30.58 1036 10 16 0.00 0.00
1:54 am 01:54 Cloudy 22 -5.6 14 -10 71 71 SE 14 22 30.54 1034 10 16 0.00 0.00
2:54 am 02:54 Cloudy 23 -5 16 -8.9 74 74 SE 12 19 30.52 1034 10 16 0.00 0.00
3:54 am 03:54 Cloudy 24 -4.4 16 -8.9 71 71 SSE 8 13 30.49 1033 10 16 0.00 0.00
4:54 am 04:54 Clear 23 -5 16 -8.9 74 74 SSE 8 13 30.47 1032 10 16 0.00 0.00
5:54 am 05:54 Clear 22 -5.6 15 -9.4 75 75 SSE 9 15 30.45 1031 10 16 0.00 0.00
6:54 am 06:54 Clear 22 -5.6 15 -9.4 75 75 SSE 10 17 30.43 1031 10 16 0.00 0.00
7:54 am 07:54 Sunny 20 -6.7 15 -9.4 81 81 S 6 9 30.44 1031 8 13 0.00 0.00
8:54 am 08:54 Sunny 23 -5 16 -8.9 74 74 S 12 19 30.42 1030 8 13 0.00 0.00
9:54 am 09:54 Sunny 27 -2.8 19 -7.2 72 72 S 18 30 30.39 1029 10 16 0.00 0.00
10:54 am 10:54 Sunny 31 -0.6 21 -6.1 67 67 S 17 28 30.35 1028 10 16 0.00 0.00
11:54 am 11:54 Sunny 34 1.1 24 -4.4 67 67 S 16 26 30.32 1027 10 16 0.00 0.00
12:54 pm 12:54 Sunny 37 2.8 26 -3.3 65 65 S 16 26 30.29 1026 10 16 0.00 0.00
1:54 pm 13:54 Sunny 39 3.9 28 -2.2 65 65 SSW 14 22 30.27 1025 10 16 0.00 0.00
2:54 pm 14:54 Sunny 40 4.4 28 -2.2 63 63 SW 13 20 30.25 1024 10 16 0.00 0.00
3:54 pm 15:54 Sunny 42 5.6 30 -1.1 62 62 SSW 10 17 30.23 1024 10 16 0.00 0.00
4:54 pm 16:54 Sunny 41 5 29 -1.7 62 62 SSW 8 13 30.21 1023 10 16 0.00 0.00
5:54 pm 17:54 Sunny 40 4.4 29 -1.7 65 65 Calm 30.22 1023 10 16 0.00 0.00
6:54 pm 18:54 Clear 31 -0.6 26 -3.3 82 82 N 5 7 30.23 1024 10 16 0.00 0.00
7:54 pm 19:54 Clear 30 -1.1 27 -2.8 88 88 Calm 30.22 1023 9 14 0.00 0.00
8:54 pm 20:54 Clear 28 -2.2 24 -4.4 85 85 Calm 30.20 1023 7 11 0.00 0.00
9:54 pm 21:54 Clear 27 -2.8 24 -4.4 89 89 Calm 30.20 1023 7 11 0.00 0.00
10:54 pm 22:54 Clear 24 -4.4 22 -5.6 91 91 Calm 30.17 1022 7 11 0.00 0.00
11:54 pm 23:54 Clear 22 -5.6 19 -7.2 89 89 N 5 7 30.16 1021 7 11 0.00 0.00

Powered by AerisWeather